period_start,C,m1,H,J0,J1,J2,J3,J4,J5,JA,JB,JC,JD,JJ,JK,JN,#
2016-10-12 00:00:30,0.09,0.33,0.00,25.05,28.82,31.38,14.44,45.60,1026.40,2027.17,3435.59,3035.25,3417.48,600.14,597.80,7.18,0000 0000 0000 0000 000000
2016-10-12 00:05:31,0.08,0.33,0.00,25.06,28.82,31.39,14.47,45.62,1026.41,2027.16,3433.63,3033.89,3415.81,600.15,597.70,7.23,0000 0000 0000 0000 000000
2016-10-12 00:10:32,0.10,0.34,0.00,25.08,28.82,31.40,14.53,45.71,1026.45,2027.11,3431.72,3032.57,3414.23,600.15,597.61,7.28,0000 0000 0000 0000 000000
2016-10-12 00:15:34,0.18,0.35,0.00,25.07,28.83,31.39,14.52,45.73,1026.44,2027.08,3427.28,3029.96,3411.17,600.13,597.85,7.33,0000 0000 0000 0000 000000
2016-10-12 00:20:35,0.14,0.35,0.00,25.09,28.84,31.40,14.51,45.68,1026.40,2027.11,3424.45,3028.27,3409.17,600.00,597.62,7.38,0000 0000 0000 0000 000000
2016-10-12 00:25:37,0.07,0.36,0.00,25.10,28.84,31.39,14.49,45.58,1026.40,2027.05,3421.88,3026.69,3407.43,600.02,597.54,7.43,0000 0000 0000 0000 000000
2016-10-12 00:30:38,0.08,0.36,0.00,25.10,28.85,31.38,14.42,45.63,1026.41,2027.03,3420.28,3025.57,3405.98,599.73,597.27,7.48,0000 0000 0000 0000 000000
2016-10-12 00:35:39,0.13,0.37,0.00,25.12,28.85,31.38,14.47,45.48,1026.42,2027.04,3417.62,3023.80,3403.93,599.86,597.35,7.53,0000 0000 0000 0000 000000
2016-10-12 00:40:41,0.16,0.38,0.00,25.12,28.85,31.38,14.37,45.58,1026.40,2027.02,3414.19,3021.50,3401.28,599.63,597.13,7.58,0000 0000 0000 0000 000000
2016-10-12 00:45:42,0.06,0.38,0.00,25.13,28.85,31.38,14.42,45.45,1026.42,2027.01,3411.93,3020.00,3399.48,599.84,597.27,7.63,0000 0000 0000 0000 000000
2016-10-12 00:50:43,0.27,0.39,0.00,25.14,28.85,31.37,14.54,45.48,1026.44,2027.00,3406.28,3016.86,3395.91,600.11,597.61,7.68,0000 0000 0000 0000 000000
2016-10-12 00:55:44,0.16,0.40,0.00,25.13,28.85,31.38,14.47,45.52,1026.47,2027.00,3402.14,3014.27,3392.98,600.01,597.48,7.73,0000 0000 0000 0000 000000
2016-10-12 01:00:45,0.17,0.41,0.00,25.15,28.85,31.39,14.45,45.50,1026.54,2027.00,3398.22,3011.66,3390.12,599.99,597.46,7.78,0000 0000 0000 0000 000000
2016-10-12 01:05:46,0.18,0.42,0.00,25.16,28.85,31.39,14.43,45.54,1026.63,2027.00,3394.22,3009.08,3387.15,599.96,597.51,7.84,0000 0000 0000 0000 000000
2016-10-12 01:10:48,0.20,0.43,0.00,25.17,28.85,31.40,14.52,45.48,1026.59,2027.00,3389.83,3006.34,3383.84,600.19,597.57,7.89,0000 0000 0000 0000 000000
2016-10-12 01:15:49,0.07,0.44,0.00,25.17,28.85,31.40,14.48,45.47,1026.62,2027.00,3387.32,3004.75,3381.88,599.79,597.38,7.94,0000 0000 0000 0000 000000
2016-10-12 01:20:50,0.05,0.44,0.00,25.17,28.86,31.39,14.40,45.40,1026.74,2027.00,3386.17,3003.89,3380.80,599.89,597.48,7.99,0000 0000 0000 0000 000000
2016-10-12 01:25:52,0.09,0.44,0.00,25.18,28.87,31.36,14.52,45.39,1026.82,2027.00,3384.44,3002.65,3379.36,600.48,598.14,8.04,0000 0000 0000 0000 000000
2016-10-12 01:30:53,0.11,0.45,0.00,25.19,28.87,31.38,14.43,45.46,1026.80,2027.00,3382.04,3001.09,3377.44,599.61,597.18,8.09,0000 0000 0000 0000 000000
2016-10-12 01:35:54,0.11,0.45,0.00,25.21,28.87,31.38,14.40,45.58,1026.77,2027.00,3379.35,2999.39,3375.40,599.81,597.46,8.14,0000 0000 0000 0000 000000
2016-10-12 01:40:55,0.10,0.46,0.00,25.22,28.87,31.39,14.52,45.61,1026.74,2027.00,3377.21,2997.91,3373.70,600.26,597.75,8.19,0000 0000 0000 0000 000000
2016-10-12 01:45:57,0.13,0.46,0.00,25.22,28.87,31.40,14.42,45.60,1026.54,2026.99,3374.42,2996.10,3371.51,599.91,597.28,8.24,0000 0000 0000 0000 000000
2016-10-12 01:50:58,0.16,0.47,0.00,25.23,28.87,31.41,14.45,45.44,1026.42,2026.99,3370.80,2993.73,3368.79,599.80,597.25,8.29,0000 0000 0000 0000 000000
2016-10-12 01:55:59,0.13,0.48,0.00,25.23,28.87,31.38,14.44,45.54,1026.45,2026.98,3367.68,2991.65,3366.36,600.13,597.38,8.34,0000 0000 0000 0000 000000
2016-10-12 02:01:01,0.06,0.48,0.00,25.25,28.87,31.40,14.51,45.57,1026.43,2026.99,3366.19,2990.62,3365.00,600.13,597.39,8.39,0000 0000 0000 0000 000000
2016-10-12 02:06:02,0.04,0.49,0.00,25.26,28.87,31.38,14.36,45.53,1026.40,2026.99,3365.27,2989.88,3364.00,599.79,597.06,8.44,0000 0000 0000 0000 000000
2016-10-12 02:11:03,0.04,0.49,0.00,25.26,28.87,31.39,14.46,45.56,1026.41,2026.98,3364.49,2989.08,3363.11,600.53,597.66,8.49,0000 0000 0000 0000 000000
2016-10-12 02:16:04,0.01,0.49,0.00,25.27,28.87,31.38,14.46,45.55,1026.43,2026.98,3363.99,2988.92,3362.65,600.24,597.43,8.54,0000 0000 0000 0000 000000
2016-10-12 02:21:06,0.04,0.49,0.00,25.27,28.87,31.37,14.45,45.48,1026.46,2026.98,3363.48,2988.20,3362.02,600.64,597.86,8.59,0000 0000 0000 0000 000000
2016-10-12 02:26:07,0.01,0.49,0.00,25.28,28.88,31.39,14.43,45.48,1026.43,2026.96,3363.00,2988.00,3361.50,599.96,597.15,8.64,0000 0000 0000 0000 000000
2016-10-12 02:31:08,0.03,0.50,0.00,25.30,28.88,31.40,14.45,45.46,1026.40,2026.97,3362.37,2987.60,3361.01,599.96,597.05,8.69,0000 0000 0000 0000 000000
2016-10-12 02:36:09,0.04,0.50,0.00,25.30,28.88,31.38,14.43,45.57,1026.41,2026.97,3361.57,2987.01,3360.22,599.84,597.05,8.74,0000 0000 0000 0000 000000
2016-10-12 02:41:10,0.03,0.50,0.00,25.31,28.89,31.38,14.43,45.36,1026.41,2026.93,3360.89,2986.25,3359.48,599.95,597.08,8.79,0000 0000 0000 0000 000000
2016-10-12 02:46:11,0.02,0.50,0.00,25.31,28.90,31.40,14.47,45.42,1026.40,2026.90,3360.09,2985.99,3358.99,600.23,597.36,8.84,0000 0000 0000 0000 000000
2016-10-12 02:51:13,0.02,0.50,0.00,25.32,28.90,31.39,14.48,45.43,1026.40,2026.81,3359.79,2985.51,3358.35,600.25,597.42,8.89,0000 0000 0000 0000 000000
2016-10-12 02:56:14,0.03,0.50,0.00,25.34,28.90,31.40,14.49,45.42,1026.41,2026.86,3359.08,2985.02,3357.99,600.36,597.35,8.94,0000 0000 0000 0000 000000
2016-10-12 03:01:15,0.03,0.50,0.00,25.35,28.90,31.41,14.48,45.55,1026.42,2026.92,3358.41,2984.97,3357.22,600.19,597.24,8.99,0000 0000 0000 0000 000000
2016-10-12 03:06:17,0.03,0.51,0.00,25.36,28.90,31.39,14.31,45.38,1026.43,2026.92,3357.95,2984.30,3356.85,599.68,596.71,9.04,0000 0000 0000 0000 000000
2016-10-12 03:11:18,0.04,0.51,0.00,25.37,28.90,31.39,14.48,45.46,1026.43,2026.80,3356.85,2983.67,3355.81,600.58,597.58,9.09,0000 0000 0000 0000 000000
2016-10-12 03:16:19,0.07,0.51,0.00,25.40,28.90,31.40,14.50,45.45,1026.41,2026.78,3355.23,2982.58,3354.64,599.96,597.00,9.14,0000 0000 0000 0000 000000
2016-10-12 03:21:21,0.03,0.51,0.00,25.40,28.90,31.40,14.45,45.51,1026.40,2026.78,3354.19,2982.00,3353.97,599.96,596.90,9.19,0000 0000 0000 0000 000000
2016-10-12 03:26:22,0.02,0.52,0.00,25.41,28.91,31.40,14.39,45.34,1026.41,2026.64,3353.71,2981.46,3353.23,599.71,596.63,9.24,0000 0000 0000 0000 000000
2016-10-12 03:31:23,0.02,0.52,0.00,25.42,28.92,31.40,14.48,45.30,1026.42,2026.48,3353.00,2981.00,3352.85,599.88,596.91,9.29,0000 0000 0000 0000 000000
2016-10-12 03:36:25,0.05,0.52,0.00,25.42,28.92,31.39,14.39,45.23,1026.41,2026.56,3352.21,2980.62,3352.07,599.58,596.45,9.34,0000 0000 0000 0000 000000
2016-10-12 03:41:26,0.02,0.52,0.00,25.43,28.92,31.42,14.45,45.31,1026.40,2026.55,3351.47,2980.01,3351.52,600.03,596.89,9.39,0000 0000 0000 0000 000000
2016-10-12 03:46:27,0.03,0.52,0.00,25.44,28.92,31.43,14.50,45.38,1026.40,2026.36,3350.77,2979.52,3350.93,600.07,596.89,9.44,0000 0000 0000 0000 000000
2016-10-12 03:51:29,0.02,0.52,0.00,25.45,28.92,31.41,14.41,45.32,1026.41,2026.33,3350.01,2979.01,3350.10,600.00,596.86,9.49,0000 0000 0000 0000 000000
2016-10-12 03:56:30,0.04,0.52,0.00,25.46,28.92,31.41,14.53,45.52,1026.45,2026.47,3349.27,2978.64,3349.83,600.24,597.08,9.54,0000 0000 0000 0000 000000
2016-10-12 04:01:32,-0.00,0.53,0.00,25.47,28.92,31.39,14.47,45.47,1026.46,2026.27,3348.97,2978.05,3349.14,599.96,596.83,9.59,0000 0000 0000 0000 000000
2016-10-12 04:06:33,0.01,0.53,0.00,25.48,28.93,31.42,14.43,45.38,1026.45,2026.14,3348.27,2977.99,3348.98,600.02,596.84,9.64,0000 0000 0000 0000 000000
2016-10-12 04:11:34,0.01,0.53,0.00,25.48,28.93,31.43,14.44,45.34,1026.47,2026.06,3348.00,2977.77,3348.51,600.17,597.02,9.69,0000 0000 0000 0000 000000
2016-10-12 04:16:36,0.02,0.53,0.00,25.50,28.94,31.42,14.45,45.38,1026.53,2026.09,3348.00,2977.33,3348.06,600.02,596.83,9.74,0000 0000 0000 0000 000000
2016-10-12 04:21:37,0.01,0.53,0.00,25.50,28.95,31.42,14.45,45.33,1026.60,2026.10,3347.93,2977.04,3348.00,600.21,597.07,9.79,0000 0000 0000 0000 000000
2016-10-12 04:26:38,0.00,0.53,0.00,25.50,28.95,31.43,14.46,45.48,1026.72,2026.09,3347.36,2977.00,3347.98,599.99,596.95,9.84,0000 0000 0000 0000 000000
2016-10-12 04:31:39,0.00,0.53,0.00,25.52,28.95,31.43,14.41,45.38,1026.68,2026.03,3347.01,2977.00,3347.49,600.07,596.89,9.89,0000 0000 0000 0000 000000
2016-10-12 04:36:41,0.01,0.53,0.00,25.54,28.95,31.42,14.41,45.42,1026.54,2026.04,3346.99,2976.86,3347.02,599.83,596.58,9.94,0000 0000 0000 0000 000000
2016-10-12 04:41:42,0.02,0.53,0.00,25.55,28.95,31.44,14.52,45.42,1026.71,2026.03,3346.88,2976.20,3347.00,600.45,597.27,9.99,0000 0000 0000 0000 000000
2016-10-12 04:46:43,0.02,0.53,0.00,25.56,28.96,31.43,14.43,45.43,1026.75,2026.02,3346.23,2976.02,3346.67,600.08,596.88,10.04,0000 0000 0000 0000 000000
2016-10-12 04:51:45,0.00,0.53,0.00,25.59,28.97,31.44,14.47,45.43,1026.65,2026.01,3345.98,2975.98,3346.02,600.02,596.85,10.10,0000 0000 0000 0000 000000
2016-10-12 04:56:46,0.02,0.53,0.00,25.60,28.97,31.44,14.48,45.28,1026.72,2026.00,3345.42,2975.57,3345.91,600.18,596.90,10.15,0000 0000 0000 0000 000000
2016-10-12 05:01:47,0.02,0.53,0.00,25.60,28.98,31.45,14.39,45.23,1026.71,2026.00,3345.03,2975.07,3345.31,600.04,596.75,10.20,0000 0000 0000 0000 000000
2016-10-12 05:06:48,0.00,0.54,0.00,25.62,29.00,31.48,14.37,45.32,1026.79,2026.00,3344.99,2975.00,3345.01,599.82,596.55,10.25,0000 0000 0000 0000 000000
2016-10-12 05:11:50,0.00,0.54,0.00,25.62,29.00,31.47,14.39,45.34,1026.85,2026.00,3344.90,2974.97,3344.98,600.02,596.82,10.30,0000 0000 0000 0000 000000
2016-10-12 05:16:51,0.05,0.54,0.00,25.64,29.00,31.48,14.44,45.26,1026.85,2026.00,3344.14,2974.34,3344.33,600.23,596.97,10.35,0000 0000 0000 0000 000000
2016-10-12 05:21:52,0.02,0.54,0.00,25.65,29.02,31.50,14.45,45.32,1026.85,2026.00,3343.21,2973.99,3343.88,600.01,596.58,10.40,0000 0000 0000 0000 000000
2016-10-12 05:26:54,0.03,0.54,0.00,25.66,29.02,31.52,14.44,45.24,1026.84,2026.00,3342.99,2973.49,3343.15,599.92,596.46,10.45,0000 0000 0000 0000 000000
2016-10-12 05:31:55,0.00,0.54,0.00,25.67,29.02,31.54,14.46,45.23,1026.85,2026.00,3342.84,2973.05,3343.00,599.94,596.61,10.50,0000 0000 0000 0000 000000
2016-10-12 05:36:57,0.01,0.54,0.00,25.67,29.05,31.54,14.30,45.26,1026.87,2025.99,3342.13,2973.00,3342.88,599.65,596.31,10.55,0000 0000 0000 0000 000000
2016-10-12 05:41:58,0.01,0.54,0.00,25.70,29.05,31.56,14.43,45.23,1026.87,2025.99,3342.00,2972.99,3342.31,600.43,597.04,10.60,0000 0000 0000 0000 000000
2016-10-12 05:46:59,0.01,0.54,0.00,25.70,29.06,31.56,14.33,45.17,1026.87,2025.98,3341.97,2972.73,3342.00,599.69,596.27,10.65,0000 0000 0000 0000 000000
2016-10-12 05:52:00,0.03,0.54,0.00,25.72,29.07,31.57,14.46,45.37,1026.87,2025.98,3341.42,2972.13,3341.82,600.08,596.65,10.70,0000 0000 0000 0000 000000
2016-10-12 05:57:01,0.01,0.55,0.00,25.72,29.07,31.58,14.48,45.33,1026.87,2025.97,3341.01,2972.00,3341.11,600.20,596.80,10.75,0000 0000 0000 0000 000000
2016-10-12 06:02:03,-0.00,0.55,0.00,25.73,29.10,31.57,14.47,45.19,1026.87,2025.96,3340.99,2971.99,3341.00,600.24,596.73,10.80,0000 0000 0000 0000 000000
2016-10-12 06:07:03,0.01,0.55,0.00,25.73,29.10,31.59,14.38,45.21,1026.87,2025.94,3340.87,2971.87,3340.98,599.69,596.15,10.85,0000 0000 0000 0000 000000
2016-10-12 06:12:05,0.04,0.55,0.00,25.75,29.10,31.62,14.52,45.38,1026.87,2025.89,3340.18,2971.26,3340.34,600.50,596.96,10.90,0000 0000 0000 0000 000000
2016-10-12 06:17:06,-0.02,0.55,0.00,25.75,29.12,31.62,14.47,45.28,1026.87,2025.76,3340.00,2971.01,3340.01,600.15,596.66,10.95,0000 0000 0000 0000 000000
2016-10-12 06:22:07,-0.03,0.55,0.00,25.75,29.12,31.63,14.48,45.42,1026.88,2025.50,3339.92,2971.00,3339.97,599.94,596.48,11.00,0000 0000 0000 0000 000000
2016-10-12 06:27:08,0.03,0.55,0.00,25.77,29.14,31.65,14.50,45.26,1026.87,2025.24,3339.18,2970.73,3339.28,600.17,596.66,11.05,0000 0000 0000 0000 000000
2016-10-12 06:32:10,0.01,0.55,0.00,25.77,29.15,31.64,14.41,45.23,1026.88,2025.22,3339.00,2970.13,3339.01,599.89,596.32,11.10,0000 0000 0000 0000 000000
2016-10-12 06:37:11,-0.00,0.55,0.00,25.77,29.15,31.65,14.44,45.19,1026.90,2025.12,3339.00,2970.00,3338.99,599.98,596.47,11.15,0000 0000 0000 0000 000000
2016-10-12 06:42:12,0.00,0.55,0.00,25.78,29.17,31.65,14.40,45.27,1026.89,2025.10,3338.92,2970.00,3338.84,600.15,596.54,11.20,0000 0000 0000 0000 000000
2016-10-12 06:47:14,0.01,0.55,0.00,25.79,29.17,31.68,14.41,45.30,1026.89,2025.04,3338.27,2969.98,3338.12,600.06,596.49,11.25,0000 0000 0000 0000 000000
2016-10-12 06:52:15,0.01,0.55,0.00,25.80,29.19,31.67,14.39,45.17,1026.87,2025.04,3338.02,2969.66,3338.01,599.79,596.20,11.30,0000 0000 0000 0000 000000
2016-10-12 06:57:16,0.01,0.55,0.00,25.80,29.20,31.69,14.41,45.20,1026.88,2025.01,3338.00,2969.08,3337.96,599.89,596.31,11.35,0000 0000 0000 0000 000000
2016-10-12 07:02:17,0.00,0.55,0.00,25.81,29.20,31.70,14.34,45.22,1026.87,2025.00,3337.96,2969.02,3337.70,599.70,596.20,11.40,0000 0000 0000 0000 000000
2016-10-12 07:07:19,0.02,0.55,0.00,25.81,29.21,31.71,14.41,45.18,1026.87,2025.00,3337.39,2969.00,3337.05,599.92,596.33,11.45,0000 0000 0000 0000 000000
2016-10-12 07:12:20,0.00,0.55,0.00,25.82,29.22,31.72,14.42,45.28,1026.87,2025.00,3337.02,2968.94,3337.00,600.22,596.56,11.50,0000 0000 0000 0000 000000
2016-10-12 07:17:21,0.01,0.55,0.00,25.82,29.22,31.73,14.37,45.20,1026.87,2025.00,3337.00,2968.64,3336.92,600.02,596.49,11.55,0000 0000 0000 0000 000000
2016-10-12 07:22:22,0.02,0.55,0.00,25.83,29.24,31.75,14.47,45.29,1026.87,2025.00,3336.98,2968.09,3336.33,600.36,596.69,11.60,0000 0000 0000 0000 000000
2016-10-12 07:27:23,0.00,0.55,0.00,25.82,29.25,31.75,14.41,45.28,1026.87,2025.00,3336.86,2968.03,3336.05,599.93,596.27,11.65,0000 0000 0000 0000 000000
2016-10-12 07:32:24,0.01,0.55,0.00,25.84,29.25,31.75,14.37,45.31,1026.87,2025.00,3336.16,2967.99,3335.99,600.02,596.33,11.70,0000 0000 0000 0000 000000
2016-10-12 07:37:26,0.00,0.55,0.00,25.83,29.26,31.74,14.33,45.22,1026.87,2024.99,3336.00,2967.97,3335.80,599.52,595.88,11.75,0000 0000 0000 0000 000000
2016-10-12 07:42:27,0.03,0.56,0.00,25.80,29.27,31.74,14.38,45.28,1026.88,2024.99,3335.89,2967.57,3335.09,599.75,596.09,11.80,0000 0000 0000 0000 000000
2016-10-12 07:47:29,0.02,0.56,0.00,25.77,29.27,31.77,14.39,45.37,1026.90,2024.99,3335.20,2967.09,3335.00,599.91,596.43,11.85,0000 0000 0000 0000 000000
2016-10-12 07:52:30,0.00,0.56,0.00,25.75,29.27,31.79,14.44,45.36,1026.93,2024.96,3335.00,2967.00,3334.90,600.40,596.88,11.90,0000 0000 0000 0000 000000
2016-10-12 07:57:31,0.01,0.56,0.00,25.73,29.28,31.79,14.45,45.23,1026.97,2024.96,3334.96,2966.98,3334.30,600.20,596.77,11.95,0000 0000 0000 0000 000000
2016-10-12 08:02:32,0.01,0.56,0.00,25.71,29.29,31.80,14.48,45.31,1026.95,2024.98,3334.56,2966.93,3334.02,599.92,596.56,12.00,0000 0000 0000 0000 000000
2016-10-12 08:07:33,0.02,0.56,0.00,25.69,29.29,31.81,14.38,45.30,1026.92,2024.97,3334.08,2966.58,3334.00,599.61,596.34,12.05,0000 0000 0000 0000 000000
2016-10-12 08:12:34,0.01,0.56,0.00,25.66,29.29,31.80,14.44,45.34,1026.93,2024.96,3334.00,2966.05,3333.89,600.01,596.80,12.10,0000 0000 0000 0000 000000
2016-10-12 08:17:35,0.01,0.56,0.00,25.65,29.29,31.81,14.47,45.39,1026.93,2024.97,3333.82,2966.00,3333.29,600.13,596.84,12.15,0000 0000 0000 0000 000000
2016-10-12 08:22:36,0.03,0.56,0.00,25.65,29.29,31.78,14.43,45.37,1026.94,2024.96,3333.00,2965.74,3332.88,600.11,596.82,12.20,0000 0000 0000 0000 000000
2016-10-12 08:27:38,0.05,0.56,0.00,25.62,29.28,31.80,14.42,45.33,1026.98,2024.91,3331.97,2964.93,3331.93,599.76,596.62,12.25,0000 0000 0000 0000 000000
2016-10-12 08:32:39,0.07,0.57,0.00,25.59,29.27,31.80,14.38,45.33,1027.08,2024.93,3330.65,2964.04,3330.86,599.39,596.40,12.30,0000 0000 0000 0000 000000
2016-10-12 08:37:40,0.07,0.57,0.00,25.60,29.27,31.80,14.48,45.38,1027.07,2024.96,3329.09,2963.06,3329.73,600.10,597.05,12.35,0000 0000 0000 0000 000000
2016-10-12 08:42:42,0.05,0.57,0.00,25.59,29.27,31.81,14.45,45.37,1027.00,2024.98,3327.82,2962.17,3328.93,599.83,596.73,12.41,0000 0000 0000 0000 000000
2016-10-12 08:47:43,0.02,0.58,0.00,25.56,29.27,31.79,14.40,45.33,1027.07,2024.95,3327.04,2961.98,3328.17,599.76,596.82,12.46,0000 0000 0000 0000 000000
2016-10-12 08:52:44,0.01,0.58,0.00,25.55,29.27,31.77,14.36,45.33,1027.27,2024.98,3326.99,2961.82,3328.00,599.84,597.12,12.51,0000 0000 0000 0000 000000
2016-10-12 08:57:45,0.03,0.58,0.00,25.54,29.26,31.78,14.50,45.36,1027.33,2024.99,3326.55,2961.21,3327.74,600.40,597.59,12.56,0000 0000 0000 0000 000000
2016-10-12 09:02:46,0.01,0.58,0.00,25.52,29.25,31.77,14.42,45.31,1027.35,2024.98,3326.01,2961.00,3327.06,600.04,597.28,12.61,0000 0000 0000 0000 000000
2016-10-12 09:07:48,0.00,0.58,0.00,25.50,29.25,31.77,14.48,45.38,1027.36,2024.97,3325.99,2961.00,3327.00,600.10,597.24,12.66,0000 0000 0000 0000 000000
2016-10-12 09:12:49,0.00,0.58,0.00,25.48,29.25,31.75,14.43,45.43,1027.36,2024.99,3325.80,2960.96,3326.98,599.99,597.43,12.71,0000 0000 0000 0000 000000
2016-10-12 09:17:50,0.03,0.58,0.00,25.48,29.24,31.78,14.39,45.43,1027.36,2024.98,3325.10,2960.78,3326.54,599.68,597.02,12.76,0000 0000 0000 0000 000000
2016-10-12 09:22:52,0.02,0.58,0.00,25.48,29.22,31.75,14.55,45.40,1027.36,2024.99,3325.00,2960.16,3326.02,599.78,597.14,12.81,0000 0000 0000 0000 000000
2016-10-12 09:27:53,0.02,0.58,0.00,25.45,29.22,31.73,14.51,45.38,1027.36,2024.99,3324.44,2960.01,3325.88,600.26,597.63,12.86,0000 0000 0000 0000 000000
2016-10-12 09:32:54,0.01,0.58,0.00,25.45,29.22,31.76,14.46,45.43,1027.34,2024.99,3324.00,2959.91,3325.20,600.13,597.48,12.91,0000 0000 0000 0000 000000
2016-10-12 09:37:55,0.04,0.59,0.00,25.45,29.21,31.75,14.43,45.61,1027.34,2024.99,3323.29,2959.14,3324.79,599.53,596.92,12.96,0000 0000 0000 0000 000000
2016-10-12 09:42:56,0.02,0.59,0.00,25.43,29.20,31.73,14.44,45.68,1027.29,2024.99,3322.41,2958.91,3324.03,599.89,597.34,13.01,0000 0000 0000 0000 000000
2016-10-12 09:47:58,0.02,0.59,0.00,25.41,29.20,31.74,14.45,46.33,1027.28,2024.99,3322.01,2958.19,3323.95,600.30,597.74,13.06,0000 0000 0000 0000 000000
2016-10-12 09:52:59,0.01,0.59,0.00,25.40,29.18,31.74,14.46,46.13,1027.29,2024.99,3321.85,2958.00,3323.41,600.05,597.55,13.11,0000 0000 0000 0000 000000
2016-10-12 09:58:00,0.01,0.59,0.00,25.40,29.17,31.75,14.44,45.86,1027.29,2024.99,3321.16,2958.00,3323.01,600.02,597.47,13.16,0000 0000 0000 0000 000000
2016-10-12 10:03:01,0.01,0.59,0.00,25.40,29.16,31.68,14.49,45.79,1027.15,2024.99,3320.96,2957.90,3322.88,600.42,597.73,13.21,0000 0000 0000 0000 000000
2016-10-12 10:08:02,0.04,0.59,0.00,25.37,29.15,31.65,14.44,45.56,1027.06,2025.01,3320.19,2957.23,3322.13,599.74,597.14,13.26,0000 0000 0000 0000 000000
2016-10-12 10:13:03,0.00,0.59,0.00,25.37,29.15,31.70,14.41,45.60,1027.00,2025.02,3320.00,2957.01,3322.00,599.79,597.07,13.31,0000 0000 0000 0000 000000
2016-10-12 10:18:05,0.00,0.59,0.00,25.36,29.13,31.68,14.46,45.56,1027.05,2025.05,3319.99,2957.00,3321.98,600.09,597.43,13.36,0000 0000 0000 0000 000000
2016-10-12 10:23:06,0.00,0.59,0.00,25.35,29.12,31.67,14.46,45.49,1026.96,2025.04,3319.88,2957.00,3321.75,599.93,597.30,13.41,0000 0000 0000 0000 000000
2016-10-12 10:28:07,0.03,0.60,0.00,25.33,29.11,31.63,14.46,45.46,1026.92,2025.09,3319.18,2956.98,3321.07,600.06,597.38,13.46,0000 0000 0000 0000 000000
2016-10-12 10:33:08,0.02,0.60,0.00,25.32,29.10,31.64,14.40,45.46,1026.98,2025.22,3319.01,2956.84,3321.00,599.69,597.16,13.51,0000 0000 0000 0000 000000
2016-10-12 10:38:10,0.05,0.60,0.00,25.31,29.10,31.59,14.45,45.51,1026.93,2025.56,3318.93,2956.30,3320.94,599.63,597.08,13.56,0000 0000 0000 0000 000000
2016-10-12 10:43:11,0.01,0.60,0.00,25.29,29.07,31.62,14.42,45.53,1026.92,2025.73,3318.84,2956.07,3320.83,599.46,596.95,13.61,0000 0000 0000 0000 000000
2016-10-12 10:48:12,0.02,0.60,0.00,25.27,29.07,31.62,14.49,45.48,1026.93,2025.85,3318.56,2956.03,3320.50,600.09,597.61,13.66,0000 0000 0000 0000 000000
2016-10-12 10:53:13,0.01,0.60,0.00,25.27,29.05,31.60,14.50,45.39,1026.93,2025.87,3318.11,2956.00,3320.07,600.27,597.75,13.71,0000 0000 0000 0000 000000
2016-10-12 10:58:15,0.00,0.60,0.00,25.25,29.05,31.59,14.44,45.36,1026.94,2025.94,3318.05,2956.00,3320.02,600.17,597.82,13.76,0000 0000 0000 0000 000000
2016-10-12 11:03:16,0.00,0.60,0.00,25.24,29.03,31.54,14.49,45.45,1026.92,2025.97,3318.00,2956.00,3320.00,599.75,597.23,13.81,0000 0000 0000 0000 000000
2016-10-12 11:08:17,0.00,0.60,0.00,25.21,29.02,31.51,14.51,45.36,1026.89,2025.97,3318.00,2956.00,3319.99,600.03,597.52,13.86,0000 0000 0000 0000 000000
2016-10-12 11:13:19,0.00,0.60,0.00,25.21,29.02,31.51,14.51,45.35,1026.88,2025.99,3317.99,2956.00,3319.97,600.00,597.54,13.91,0000 0000 0000 0000 000000
2016-10-12 11:18:20,0.00,0.60,0.00,25.21,29.00,31.50,14.50,45.30,1026.88,2025.99,3317.98,2956.00,3319.97,600.02,597.61,13.96,0000 0000 0000 0000 000000
2016-10-12 11:23:21,0.01,0.60,0.00,25.19,29.00,31.50,14.41,45.40,1026.88,2025.99,3317.73,2956.00,3319.50,599.83,597.47,14.01,0000 0000 0000 0000 000000
2016-10-12 11:28:22,0.02,0.61,0.00,25.18,28.99,31.50,14.50,45.36,1026.87,2026.00,3317.18,2955.87,3319.08,600.37,597.93,14.06,0000 0000 0000 0000 000000
2016-10-12 11:33:23,0.01,0.61,0.00,25.19,28.97,31.48,14.53,45.42,1026.87,2026.00,3317.00,2955.23,3318.99,599.86,597.62,14.11,0000 0000 0000 0000 000000
2016-10-12 11:38:24,0.01,0.61,0.00,25.16,28.97,31.48,14.50,45.46,1026.87,2026.00,3316.87,2955.03,3318.65,599.95,597.60,14.16,0000 0000 0000 0000 000000
2016-10-12 11:43:25,0.02,0.61,0.00,25.15,28.96,31.50,14.45,45.50,1026.87,2026.00,3316.19,2955.00,3318.05,599.75,597.43,14.21,0000 0000 0000 0000 000000
2016-10-12 11:48:27,0.00,0.61,0.00,25.15,28.95,31.48,14.42,45.51,1026.87,2026.00,3316.01,2954.99,3318.00,600.05,597.71,14.26,0000 0000 0000 0000 000000
2016-10-12 11:53:28,0.01,0.61,0.00,25.15,28.95,31.43,14.47,45.44,1026.87,2026.03,3315.99,2954.96,3317.84,600.06,597.74,14.31,0000 0000 0000 0000 000000
2016-10-12 11:58:29,0.01,0.61,0.00,25.12,28.95,31.43,14.47,45.40,1026.87,2026.03,3315.92,2954.84,3317.32,600.00,597.71,14.36,0000 0000 0000 0000 000000
2016-10-12 12:03:31,0.03,0.61,0.00,25.12,28.93,31.47,14.50,45.36,1026.86,2026.10,3315.56,2954.42,3317.06,600.10,597.86,14.41,0000 0000 0000 0000 000000
2016-10-12 12:08:32,0.01,0.61,0.00,25.11,28.92,31.46,14.53,45.40,1026.84,2026.08,3315.10,2954.07,3317.00,599.81,597.61,14.46,0000 0000 0000 0000 000000
2016-10-12 12:13:33,0.01,0.61,0.00,25.11,28.92,31.41,14.56,45.49,1026.83,2026.17,3315.01,2954.01,3317.00,600.02,597.89,14.51,0000 0000 0000 0000 000000
2016-10-12 12:18:34,0.02,0.61,0.00,25.09,28.92,31.42,14.47,45.46,1026.82,2026.39,3315.00,2954.00,3316.98,599.94,597.64,14.56,0000 0000 0000 0000 000000
2016-10-12 12:23:36,0.00,0.61,0.00,25.10,28.91,31.46,14.55,45.41,1026.79,2026.48,3314.99,2954.00,3316.62,600.23,597.99,14.61,0000 0000 0000 0000 000000
2016-10-12 12:28:37,-0.00,0.61,0.00,25.09,28.90,31.43,14.48,45.43,1026.72,2026.27,3314.74,2953.95,3316.05,599.74,597.52,14.66,0000 0000 0000 0000 000000
2016-10-12 12:33:38,0.03,0.61,0.00,25.08,28.90,31.44,14.45,45.44,1026.54,2026.46,3314.33,2953.81,3316.00,599.95,597.56,14.72,0000 0000 0000 0000 000000
2016-10-12 12:38:39,0.02,0.62,0.00,25.07,28.90,31.42,14.48,45.43,1026.46,2026.48,3314.03,2953.39,3316.00,599.92,597.55,14.77,0000 0000 0000 0000 000000
2016-10-12 12:43:41,0.03,0.62,0.00,25.06,28.90,31.42,14.43,45.41,1026.42,2026.81,3314.02,2953.19,3315.96,599.75,597.37,14.82,0000 0000 0000 0000 000000
2016-10-12 12:48:42,0.02,0.62,0.00,25.07,28.90,31.43,14.48,45.40,1026.40,2026.86,3314.00,2953.03,3315.61,599.97,597.63,14.87,0000 0000 0000 0000 000000
2016-10-12 12:53:43,0.01,0.62,0.00,25.04,28.90,31.43,14.52,45.49,1026.40,2026.86,3313.91,2953.00,3315.05,600.15,597.62,14.92,0000 0000 0000 0000 000000